Regional Weather Roundup
Issued by NWS

Home | Current Version | Previous Version | Graphics & Text | Print | Product List | Glossary On
Versions: 1 2 3 4 5 6 7 8 9 10 11 12 13 14 15 16 17 18 19 20 21 22 23 24 25 26 27 28 29 30 31 32 33 34 35 36 37 38 39 40 41 42 43 44 45 46 47 48 49 50
000
ASUS43 KDMX 271608
RWRIA

WEATHER ROUNDUP FOR IOWA
NATIONAL WEATHER SERVICE DES MOINES IA
1100 AM CDT FRI MAY 27 2016

NOTE: "FAIR" INDICATES FEW OR NO CLOUDS BELOW 12,000 FEET WITH NO
SIGNIFICANT WEATHER AND/OR OBSTRUCTIONS TO VISIBILITY.

* - THESE STATIONS ARE NOT NWS STATIONS...THUS NOT UNDER NWS
QUALITY CONTROL.  THEY ALSO DO NOT REPORT WEATHER SUCH
AS PRECIPITATION OR FOG.

IAZ001>003-012>014-020>022-031>034-043>046-271700-
   NORTHWEST IOWA

CITY           SKY/WX    TMP DP  RH WIND       PRES   REMARKS
CARROLL *      PTSUNNY   66  61  82 SE7       29.76F
CHEROKEE *     CLOUDY    66  64  94 CALM      29.76F
LE MARS *      CLOUDY    66  61  82 CALM      29.77F
ORANGE CITY *  SUNNY     64  57  77 CALM      29.77F
SHELDON *      CLOUDY    66  57  72 S7        29.77F
SIOUX CITY     CLOUDY    67  59  75 CALM      29.76F
SPENCER        CLOUDY    66  59  78 SW7       29.77F
STORM LAKE *   MOSUNNY   66  59  77 SE7       29.78S
$$

IAZ055>058-069>071-079>083-090>094-271700-
   SOUTHWEST IOWA

CITY           SKY/WX    TMP DP  RH WIND       PRES   REMARKS
ATLANTIC *     CLOUDY    66  61  82 E6        29.76R
AUDUBON *        N/A     68  63  83 E7        29.75F
CLARINDA *       N/A     66  63  88 MISG      29.77R
COUNCIL BLFS *   N/A     68  61  77 CALM      29.74F
CRESTON *      CLOUDY    64  63  94 NE5       29.77R
HARLAN  *      MOSUNNY   68  61  77 NE3       29.78F
LAMONI         CLOUDY    67  66  97 SW3       29.74R
RED OAK *      CLOUDY    66  61  82 E6        29.77R
SHENANDOAH *   CLOUDY    66  63  88 E8        29.77R
$$

IAZ047>049-059>061-072>074-084-271700-
   CENTRAL IOWA

CITY           SKY/WX    TMP DP  RH WIND       PRES   REMARKS
AMES           LGT RAIN  64  62  93 NE3       29.76F FOG
ANKENY *       CLOUDY    64  64 100 CALM      29.74F FOG
BOONE *        LGT RAIN  63  63 100 E6        29.76F
CHARITON *     CLOUDY    68  68 100 SE7       29.74S FOG
DES MOINES     DRIZZLE   65  62  90 E5        29.74F FOG
GRINNELL*      CLOUDY    68  64  88 SE10      29.77S
KNOXVILLE *    CLOUDY    68  64  88 SE7       29.73F
MARSHALLTOWN   CLOUDY    65  64  97 SE12      29.76F
NEWTON *       CLOUDY    66  66 100 SE9       29.75F
PERRY *        CLOUDY    64  63  94 E3        29.77S
$$

IAZ004>006-015-016-023>025-035-036-271700-
   NORTH CENTRAL IOWA

CITY           SKY/WX    TMP DP  RH WIND       PRES   REMARKS
ALGONA *       PTSUNNY   66  61  82 SE10      29.79R
CLARION *      LGT RAIN  63  63 100 SE6       29.79S
ESTHERVILLE    CLOUDY    67  60  78 S9        29.77F
FORT DODGE *   CLOUDY    63  59  88 SE7       29.80R
MASON CITY     RAIN      63  61  93 CALM      29.81S FOG
FOREST CITY *  RAIN      61  61 100 CALM      29.79S
WEBSTER CITY * LGT RAIN  63  63 100 E3        29.77S
IOWA FALLS *   RAIN      64  63  94 CALM      29.79F
$$

IAZ007>011-017>019-026>030-037>042-050>054-066-271700-
   NORTHEAST IOWA

CITY           SKY/WX    TMP DP  RH WIND       PRES   REMARKS
CEDAR RAPIDS   PTSUNNY   73  68  84 SE8       29.77F
CHARLES CITY * RAIN      66  64  94 E8        29.80S
CLINTON *      CLOUDY    73  67  81 S17G23    29.83S
DECORAH *      CLOUDY    70  66  88 VRB5G13   29.79F
DUBUQUE        CLOUDY    69  64  84 SE15      29.83F
MONTICELLO *   PTSUNNY   70  64  83 SE12      29.80S
OELWEIN *      CLOUDY    68  63  83 S12       29.81R
WATERLOO       CLOUDY    68  61  78 SE8       29.77F
$$

IAZ064-065-067-068-078-271700-
   EAST CENTRAL IOWA

CITY           SKY/WX    TMP DP  RH WIND       PRES   REMARKS
DAVENPORT      CLOUDY    72  66  81 S23G31    29.81F
IOWA CITY      PTSUNNY   74  67  78 SE10      29.79S
MT. PLEASANT * CLOUDY    77  68  73 S20G25    29.78S
MUSCATINE *    CLOUDY    73  66  78 S15G22    29.79S
QUAD CITIES    PTSUNNY   74  66  76 SE15G23   29.80S
$$

IAZ062-063-075>077-085>089-095>099-271700-
   SOUTHEAST IOWA

CITY           SKY/WX    TMP DP  RH WIND       PRES   REMARKS
BURLINGTON     CLOUDY    69  66  90 S17G28    29.80R
FAIRFIELD *      N/A    N/A N/A N/A MISG        N/A
FORT MADISON * CLOUDY    70  66  88 S16G23    29.79S
KEOKUK *       CLOUDY    72  66  83 S13G24    29.78S
OSKALOOSA *    CLOUDY    73  66  78 S14       29.76S
OTTUMWA        CLOUDY    75  67  76 S14       29.75F
WASHINGTON *   PTSUNNY   75  75 100 S14G22    29.78R
$$

ABBREVIATIONS USED IN REMARKS
   TC - TEMPERATURES IN CELSIUS
  WCI - WIND CHILL INDEX
   HX - HEAT INDEX
  VSB - VISIBILITY
$$





USA.gov is the U.S. government's official web portal to all federal, state and local government web resources and services.